TimeEST,TemperatureF,Dew PointF,Humidity,Sea Level PressureIn,VisibilityMPH,Wind Direction,Wind SpeedMPH,Gust SpeedMPH,PrecipitationIn,Events,Conditions,WindDirDegrees,DateUTC
12:52 AM,46.0,37.0,71,30.25,10.0,ENE,8.1,-,N/A,,Overcast,60,2012-12-13 05:52:00
1:52 AM,45.0,36.0,71,30.24,10.0,ENE,11.5,21.9,N/A,,Mostly Cloudy,60,2012-12-13 06:52:00
2:52 AM,46.0,36.0,68,30.27,10.0,NE,11.5,-,N/A,,Overcast,50,2012-12-13 07:52:00
3:52 AM,46.0,35.1,66,30.29,10.0,NE,8.1,-,N/A,,Overcast,50,2012-12-13 08:52:00
4:34 AM,46.4,33.8,62,30.28,10.0,NE,10.4,-,N/A,,Overcast,40,2012-12-13 09:34:00
4:52 AM,46.0,35.1,66,30.30,10.0,NE,8.1,-,N/A,,Overcast,50,2012-12-13 09:52:00
5:52 AM,45.0,35.1,68,30.28,10.0,NE,8.1,-,N/A,,Mostly Cloudy,50,2012-12-13 10:52:00
6:52 AM,43.0,34.0,71,30.30,10.0,NE,10.4,-,N/A,,Partly Cloudy,50,2012-12-13 11:52:00
7:52 AM,44.1,34.0,68,30.32,10.0,NE,6.9,-,N/A,,Clear,40,2012-12-13 12:52:00
8:52 AM,46.0,33.1,61,30.34,10.0,NE,9.2,-,N/A,,Clear,40,2012-12-13 13:52:00
9:52 AM,48.0,35.1,61,30.35,10.0,East,10.4,-,N/A,,Partly Cloudy,80,2012-12-13 14:52:00
10:52 AM,51.1,36.0,56,30.36,10.0,ENE,8.1,-,N/A,,Partly Cloudy,70,2012-12-13 15:52:00
11:52 AM,52.0,36.0,54,30.35,10.0,Variable,3.5,-,N/A,,Partly Cloudy,0,2012-12-13 16:52:00
12:52 PM,54.0,36.0,51,30.33,10.0,NE,6.9,-,N/A,,Partly Cloudy,50,2012-12-13 17:52:00
1:52 PM,55.9,37.0,49,30.30,10.0,North,4.6,-,N/A,,Partly Cloudy,360,2012-12-13 18:52:00
2:52 PM,55.9,37.0,49,30.29,10.0,Calm,Calm,-,N/A,,Partly Cloudy,0,2012-12-13 19:52:00
3:52 PM,57.0,37.9,49,30.28,10.0,East,10.4,-,N/A,,Clear,90,2012-12-13 20:52:00
4:52 PM,55.0,37.9,53,30.29,10.0,ESE,5.8,-,N/A,,Clear,110,2012-12-13 21:52:00
6:52 PM,50.0,37.4,62,30.29,10.0,SE,3.5,-,N/A,,Clear,140,2012-12-13 23:52:00
7:52 PM,48.0,37.9,68,30.32,10.0,SSE,3.5,-,N/A,,Clear,150,2012-12-14 00:52:00
8:52 PM,46.0,37.9,73,30.33,10.0,SSE,3.5,-,N/A,,Clear,160,2012-12-14 01:52:00
9:52 PM,45.0,37.9,76,30.34,10.0,Calm,Calm,-,N/A,,Clear,0,2012-12-14 02:52:00
10:52 PM,43.0,37.0,80,30.33,10.0,Calm,Calm,-,N/A,,Clear,0,2012-12-14 03:52:00
11:52 PM,42.1,36.0,79,30.33,10.0,ENE,4.6,-,N/A,,Clear,70,2012-12-14 04:52:00